LUCH-5B

Last updated on Sun Apr 12 2026 00:02:52 GMT+0000 (Coordinated Universal Time)

1 38977U 12061A 26101.66004355 -.00000129 00000+0 00000+0 0 9994 2 38977 10.3411 50.5265 0001877 219.9648 150.7206 1.00273248 48944
UTC large
Height (km)
Speed (km/s)
/
Latitude / Longitude
Inclination (degrees)
Orbital Period (minutes)
Azimuth
Elevation
Range (km)
Doppler Factor

Next 0 passes for location: London (51.5072 / 0.1276)

Sorry there are no passes over London.
LUCH-5B